G0BMH-13 Weather Reports


Display with metric or nautical units.
time (UTC)temp
F
wind
direction
speed
MPH
gust
MPH
rain 1hr
in
rain 24hr
in
rain mn
in
humidity
%
barometer
mb
20260506021504 41 89 0.0 2.0 0.00 0.00 0.00 80 1015.8
20260506021004 41 57 1.0 3.0 0.00 0.00 0.00 80 1015.8
20260506020504 42 57 1.0 4.0 0.00 0.00 0.00 80 1016.1
20260506020025 42 67 1.0 4.0 0.00 0.00 0.00 80 1015.9
20260506015504 42 61 1.0 4.0 0.00 0.00 0.00 80 1015.9
20260506015025 42 60 1.0 6.0 0.00 0.00 0.00 80 1016.1
20260506014504 42 74 1.0 6.0 0.00 0.00 0.00 80 1016.1
20260506014003 42 66 1.0 7.0 0.00 0.00 0.00 80 1016.1
20260506013504 42 32 1.0 7.0 0.00 0.00 0.00 80 1016.0
20260506013003 42 21 0.0 3.0 0.00 0.00 0.00 80 1016.0
20260506012525 42 29 0.0 3.0 0.00 0.00 0.00 80 1016.2
20260506012004 42 43 0.0 3.0 0.00 0.00 0.00 80 1016.2
20260506011503 42 90 0.0 3.0 0.00 0.00 0.00 80 1016.0
20260506011003 42 98 1.0 3.0 0.00 0.00 0.00 80 1016.1
20260506010525 42 92 1.0 4.0 0.00 0.00 0.00 79 1016.1
20260506010025 42 82 2.0 7.0 0.00 0.00 0.00 79 1016.2
20260506005503 42 82 3.0 8.0 0.00 0.00 0.00 79 1016.1
20260506005003 42 78 3.0 8.0 0.00 0.00 0.00 79 1016.1
20260506004504 42 76 3.0 7.0 0.00 0.00 0.00 78 1016.0
20260506004003 42 77 2.0 6.0 0.00 0.00 0.00 78 1016.2
20260506003525 42 79 2.0 6.0 0.00 0.00 0.00 77 1016.0
20260506003003 42 77 2.0 7.0 0.00 0.00 0.00 77 1016.2
20260506002504 42 76 3.0 9.0 0.00 0.00 0.00 77 1016.3
20260506002003 42 83 3.0 9.0 0.00 0.00 0.00 76 1016.1
20260506001503 42 73 2.0 6.0 0.00 0.00 0.00 77 1016.1
20260506001003 42 64 1.0 6.0 0.00 0.00 0.00 77 1016.2
20260506000504 42 81 2.0 6.0 0.00 0.00 0.00 77 1016.1
20260506000024 42 84 2.0 4.0 0.00 0.00 0.00 77 1016.2
20260505235503 43 83 2.0 4.0 0.00 0.00 0.00 77 1016.3
20260505235024 43 85 2.0 4.0 0.00 0.00 0.00 78 1016.2
20260505234503 43 86 2.0 4.0 0.00 0.00 0.00 78 1016.3
20260505234004 43 84 2.0 6.0 0.00 0.00 0.00 78 1016.2
20260505233525 43 83 2.0 6.0 0.00 0.00 0.00 78 1016.3
20260505233004 43 89 2.0 6.0 0.00 0.00 0.00 78 1016.3
20260505232504 43 91 2.0 6.0 0.00 0.00 0.00 78 1016.4
20260505232004 43 85 2.0 6.0 0.00 0.00 0.00 78 1016.5
20260505231503 43 83 2.0 6.0 0.00 0.00 0.00 77 1016.3
20260505231004 43 80 2.0 7.0 0.00 0.00 0.00 77 1016.5
20260505230504 43 78 2.0 7.0 0.00 0.00 0.00 77 1016.3
20260505230004 43 78 2.0 4.0 0.00 0.00 0.00 77 1016.5
20260505225525 43 83 2.0 4.0 0.00 0.00 0.00 77 1016.6
20260505225003 43 81 2.0 7.0 0.00 0.00 0.00 77 1016.4
20260505224503 43 80 2.0 7.0 0.00 0.00 0.00 76 1016.6
20260505224004 43 83 3.0 8.0 0.00 0.00 0.00 76 1016.4
20260505223504 43 80 3.0 8.0 0.00 0.00 0.00 76 1016.4
20260505223004 43 78 3.0 7.0 0.00 0.00 0.00 76 1016.6
20260505222504 43 84 3.0 9.0 0.00 0.00 0.00 76 1016.5
20260505222004 43 83 3.0 10.0 0.00 0.00 0.00 77 1016.4
20260505221504 43 80 3.0 10.0 0.00 0.00 0.00 77 1016.4
20260505221005 43 83 3.0 8.0 0.00 0.00 0.00 78 1016.3
20260505220504 43 84 3.0 8.0 0.00 0.00 0.00 78 1016.5
20260505220004 43 82 4.0 11.0 0.00 0.00 0.00 78 1016.4
20260505215504 44 87 4.0 11.0 0.00 0.00 0.00 77 1016.3
20260505215004 44 90 2.0 7.0 0.00 0.00 0.00 77 1016.4
20260505214504 44 83 1.0 6.0 0.00 0.00 0.00 77 1016.5
20260505214004 44 84 1.0 4.0 0.00 0.00 0.00 77 1016.3
20260505213504 44 86 2.0 4.0 0.00 0.00 0.00 77 1016.2
20260505213004 44 90 2.0 7.0 0.00 0.00 0.00 76 1016.6
20260505212525 44 86 3.0 7.0 0.00 0.00 0.00 76 1016.3
20260505212004 44 78 3.0 7.0 0.00 0.00 0.00 76 1016.5
20260505211524 44 77 3.0 11.0 0.00 0.00 0.00 75 1016.4
20260505211025 44 77 3.0 11.0 0.00 0.00 0.00 75 1016.4
20260505210503 44 78 3.0 8.0 0.00 0.00 0.00 75 1016.4
20260505210004 44 83 3.0 9.0 0.00 0.00 0.00 75 1016.2
20260505205504 44 80 4.0 10.0 0.00 0.00 0.00 75 1016.2
20260505205004 44 76 4.0 10.0 0.00 0.00 0.00 75 1016.4
20260505204504 44 70 3.0 10.0 0.00 0.00 0.00 75 1016.4
20260505204024 44 69 3.0 8.0 0.00 0.00 0.00 75 1016.1
20260505203524 44 77 3.0 8.0 0.00 0.00 0.00 75 1016.1
20260505203004 44 82 3.0 8.0 0.00 0.00 0.00 75 1016.4
20260505202503 44 77 3.0 8.0 0.00 0.00 0.00 75 1016.3
20260505202003 45 75 3.0 8.0 0.00 0.00 0.00 75 1016.3
20260505201504 44 76 3.0 8.0 0.00 0.00 0.00 74 1016.2
20260505201004 45 73 3.0 9.0 0.00 0.00 0.00 75 1016.3
20260505200503 45 73 4.0 9.0 0.00 0.00 0.00 74 1016.0
20260505200024 45 69 3.0 9.0 0.00 0.00 0.00 74 1016.2
20260505195503 45 54 3.0 9.0 0.00 0.00 0.00 74 1016.1
20260505195003 45 63 4.0 9.0 0.00 0.00 0.00 74 1016.1
20260505194503 45 77 3.0 9.0 0.00 0.00 0.00 74 1016.0
20260505194004 45 82 3.0 9.0 0.00 0.00 0.00 74 1016.0
20260505193503 45 75 3.0 10.0 0.00 0.00 0.00 74 1015.9
20260505193003 45 76 3.0 10.0 0.00 0.00 0.00 73 1015.9
20260505192503 45 79 3.0 11.0 0.00 0.00 0.00 74 1015.6
20260505192024 45 70 3.0 11.0 0.00 0.00 0.00 74 1015.8
20260505191503 46 64 3.0 8.0 0.00 0.00 0.00 74 1015.8
20260505191003 46 74 3.0 10.0 0.00 0.00 0.00 74 1015.7
20260505190503 46 74 3.0 10.0 0.00 0.00 0.00 74 1015.8
20260505190025 46 70 2.0 8.0 0.00 0.00 0.00 74 1015.7
20260505185503 46 78 2.0 8.0 0.00 0.00 0.00 75 1015.7
20260505185004 46 78 3.0 10.0 0.00 0.00 0.00 75 1015.5
20260505184503 46 73 4.0 11.0 0.00 0.00 0.00 75 1015.6
20260505184004 46 72 3.0 11.0 0.00 0.00 0.00 75 1015.7
20260505183504 46 78 3.0 10.0 0.00 0.00 0.00 75 1015.5
20260505183025 47 78 3.0 8.0 0.00 0.00 0.00 74 1015.6
20260505182503 47 66 3.0 8.0 0.00 0.00 0.00 74 1015.6
20260505182003 47 67 4.0 11.0 0.00 0.00 0.00 74 1015.5
20260505181504 47 73 4.0 11.0 0.00 0.00 0.00 74 1015.5
20260505181003 47 65 2.0 7.0 0.00 0.00 0.00 74 1015.3
20260505180503 48 68 3.0 10.0 0.00 0.00 0.00 74 1015.5
20260505180024 48 77 3.0 10.0 0.00 0.00 0.00 74 1015.3
20260505175503 48 79 3.0 10.0 0.00 0.00 0.00 73 1015.1
20260505175003 48 83 3.0 9.0 0.00 0.00 0.00 73 1015.1
20260505174503 48 82 3.0 9.0 0.00 0.00 0.00 73 1015.3
20260505174003 48 80 4.0 10.0 0.00 0.00 0.00 73 1015.3
20260505173503 48 80 4.0 11.0 0.00 0.00 0.00 74 1015.2
20260505173003 49 78 3.0 13.0 0.00 0.00 0.00 74 1015.2
20260505172503 49 77 3.0 13.0 0.00 0.00 0.00 74 1015.2
20260505172003 49 76 3.0 11.0 0.00 0.00 0.00 74 1015.1
20260505171503 49 79 2.0 11.0 0.00 0.00 0.00 74 1015.3
20260505171003 49 79 2.0 4.0 0.00 0.00 0.00 74 1015.4
20260505170524 49 77 2.0 7.0 0.00 0.00 0.00 74 1015.2
20260505170003 49 80 2.0 7.0 0.00 0.00 0.00 73 1015.2
20260505165503 49 82 3.0 7.0 0.00 0.00 0.00 73 1015.1
20260505165003 49 80 3.0 8.0 0.00 0.00 0.00 73 1015.2
20260505164524 49 76 3.0 9.0 0.00 0.00 0.00 73 1015.2
20260505164024 49 74 3.0 9.0 0.00 0.00 0.00 73 1015.3
20260505163503 49 74 3.0 9.0 0.00 0.00 0.00 73 1015.1
20260505163004 49 78 2.0 7.0 0.00 0.00 0.00 73 1015.2
20260505162503 50 82 2.0 7.0 0.00 0.00 0.00 73 1015.1
20260505162003 50 84 2.0 7.0 0.00 0.00 0.00 73 1015.2
20260505161503 50 87 2.0 7.0 0.00 0.00 0.00 73 1015.1
20260505161003 50 81 2.0 7.0 0.00 0.00 0.00 73 1015.1
20260505160503 50 78 2.0 8.0 0.00 0.00 0.00 73 1014.9
20260505153003 53 343 3.0 8.0 0.00 0.00 0.00 67 1015.0
20260505152503 54 321 2.0 8.0 0.00 0.00 0.00 65 1015.2
20260505152003 55 284 1.0 3.0 0.00 0.00 0.00 61 1014.8
20260505151503 54 299 1.0 4.0 0.00 0.00 0.00 61 1014.7
20260505151003 54 310 2.0 7.0 0.00 0.00 0.00 61 1014.9
20260505150503 54 321 3.0 7.0 0.00 0.00 0.00 62 1014.9
20260505140503 53 279 4.0 8.0 0.00 0.00 0.00 61 1014.9
20260505125003 52 301 4.0 9.0 0.00 0.00 0.00 61 1014.8
20260505124503 52 303 4.0 9.0 0.00 0.00 0.00 60 1014.9
20260505124024 53 296 4.0 7.0 0.00 0.00 0.00 58 1014.9
20260505123503 53 298 3.0 7.0 0.00 0.00 0.00 59 1014.9
20260505123003 53 317 3.0 7.0 0.00 0.00 0.00 60 1015.1
20260505122503 53 326 3.0 7.0 0.00 0.00 0.00 60 1014.9
20260505122003 52 336 2.0 6.0 0.00 0.00 0.00 60 1015.0
20260505121503 53 359 2.0 6.0 0.00 0.00 0.00 59 1015.1
20260505121024 54 351 1.0 6.0 0.00 0.00 0.00 59 1015.0
20260505120503 54 333 2.0 4.0 0.00 0.00 0.00 59 1015.0
20260505120003 53 320 2.0 4.0 0.00 0.00 0.00 61 1015.0
20260505115503 52 343 2.0 4.0 0.00 0.00 0.00 63 1015.0
20260505115003 52 32 1.0 4.0 0.00 0.00 0.00 63 1015.1
20260505114503 51 24 1.0 4.0 0.00 0.00 0.00 63 1014.9
20260505114003 52 350 2.0 6.0 0.00 0.00 0.00 66 1015.1
20260505113503 51 336 3.0 8.0 0.00 0.00 0.00 67 1015.3
20260505113003 51 324 4.0 8.0 0.00 0.00 0.00 67 1015.3
20260505112503 51 320 4.0 8.0 0.00 0.00 0.00 67 1015.4
20260505112003 51 322 3.0 6.0 0.00 0.00 0.00 66 1015.3
20260505111503 51 309 2.0 6.0 0.00 0.00 0.00 66 1015.2
20260505111003 51 296 2.0 6.0 0.00 0.00 0.00 66 1015.2
20260505110503 51 301 3.0 7.0 0.00 0.00 0.00 66 1015.1
20260505102004 49 318 3.0 6.0 0.00 0.00 0.00 74 1015.2
20260505101503 49 326 3.0 7.0 0.00 0.00 0.00 73 1015.3
20260505101003 49 328 3.0 7.0 0.00 0.00 0.00 72 1015.4
20260505100503 49 320 2.0 7.0 0.00 0.00 0.00 74 1015.3
20260505100003 50 315 2.0 7.0 0.00 0.00 0.00 75 1015.2
20260505095503 49 318 3.0 8.0 0.00 0.00 0.00 75 1015.4
20260505095003 49 318 4.0 8.0 0.00 0.00 0.00 74 1015.4
20260505094524 49 307 3.0 8.0 0.00 0.00 0.00 73 1015.2
20260505094003 50 300 3.0 7.0 0.00 0.00 0.00 73 1015.2
20260505093503 50 301 4.0 8.0 0.00 0.00 0.00 71 1015.3
20260505093003 50 306 4.0 8.0 0.00 0.00 0.00 71 1015.4
20260505092503 50 303 3.0 8.0 0.00 0.00 0.00 72 1015.3
20260505092003 50 299 3.0 8.0 0.00 0.00 0.00 71 1015.4
20260505091503 50 297 4.0 8.0 0.00 0.00 0.00 70 1015.1
20260505091003 50 294 3.0 8.0 0.00 0.00 0.00 71 1015.3
20260505090503 49 300 3.0 6.0 0.00 0.00 0.00 74 1015.2
20260505090003 49 295 3.0 6.0 0.00 0.00 0.00 74 1015.2
20260505085503 49 290 3.0 6.0 0.00 0.00 0.00 75 1015.3
20260505085003 49 287 3.0 4.0 0.00 0.00 0.00 75 1015.4
20260505084503 49 289 3.0 6.0 0.00 0.00 0.00 75 1015.6
20260505084003 49 295 3.0 8.0 0.00 0.00 0.00 75 1015.5
20260505083503 49 298 3.0 8.0 0.00 0.00 0.00 75 1015.4
20260505083003 48 306 2.0 6.0 0.00 0.00 0.00 75 1015.6
20260505082524 48 307 2.0 4.0 0.00 0.00 0.00 76 1015.6
20260505082003 48 301 1.0 3.0 0.00 0.00 0.00 76 1015.4
20260505081503 48 300 1.0 3.0 0.00 0.00 0.00 77 1015.6
20260505081003 48 300 1.0 4.0 0.00 0.00 0.00 76 1015.4
20260505080503 47 290 2.0 4.0 0.00 0.00 0.00 77 1015.5
20260505080003 47 277 2.0 4.0 0.00 0.00 0.00 76 1015.4
20260505075503 47 274 1.0 4.0 0.00 0.00 0.00 76 1015.4
20260505075003 47 272 1.0 2.0 0.00 0.00 0.00 77 1015.6
20260505074503 47 274 0.0 2.0 0.00 0.00 0.00 78 1015.4
20260505074003 47 280 1.0 2.0 0.00 0.00 0.00 78 1015.4
20260505073503 46 277 1.0 3.0 0.00 0.00 0.00 78 1015.1
20260505073024 46 274 1.0 3.0 0.00 0.00 0.00 78 1015.4
20260505072524 46 268 0.0 2.0 0.00 0.00 0.00 80 1015.4
20260505072003 46 233 0.0 1.0 0.00 0.00 0.00 81 1015.5
20260505071503 46 248 0.0 1.0 0.00 0.00 0.00 82 1015.4
20260505071003 46 262 0.0 1.0 0.00 0.00 0.00 82 1015.5
20260505070503 46 267 1.0 3.0 0.00 0.00 0.00 82 1015.7
20260505070003 45 268 1.0 3.0 0.00 0.00 0.00 82 1015.5
20260505065503 45 271 0.0 2.0 0.00 0.00 0.00 85 1015.6
20260505065003 45 246 0.0 1.0 0.00 0.00 0.00 86 1015.7
20260505064524 45 245 0.0 1.0 0.00 0.00 0.00 87 1015.8
20260505064003 44 243 0.0 1.0 0.00 0.00 0.00 87 1015.7
20260505063524 44 239 0.0 1.0 0.00 0.00 0.00 88 1015.7
20260505063024 44 233 0.0 2.0 0.00 0.00 0.00 89 1015.8
20260505062524 44 230 0.0 2.0 0.00 0.00 0.00 89 1015.5
20260505062003 44 264 0.0 1.0 0.00 0.00 0.00 90 1015.6
20260505061503 44 264 0.0 1.0 0.00 0.00 0.00 90 1015.5
20260505061003 43 251 0.0 1.0 0.00 0.00 0.00 90 1015.7
20260505060503 43 237 0.0 1.0 0.00 0.00 0.00 90 1015.4
20260505060003 43 198 0.0 1.0 0.00 0.00 0.00 90 1015.5
20260505055503 44 0 0.0 0.0 0.00 0.00 0.00 91 1015.2
20260505055003 44 0 0.0 0.0 0.00 0.00 0.00 91 1015.3
20260505054524 43 143 0.0 1.0 0.00 0.00 0.00 91 1015.4
20260505054024 43 143 0.0 1.0 0.00 0.00 0.00 91 1015.5
20260505053503 42 143 1.0 1.0 0.00 0.00 0.00 92 1015.4
20260505053004 41 143 1.0 1.0 0.00 0.00 0.00 92 1015.4
20260505052503 41 158 1.0 2.0 0.00 0.00 0.00 92 1015.3
20260505052024 41 191 1.0 2.0 0.00 0.00 0.00 93 1015.2
20260505051503 41 238 0.0 1.0 0.00 0.00 0.00 93 1015.3
20260505051003 41 238 0.0 1.0 0.00 0.00 0.00 93 1015.2
20260505050503 40 238 0.0 1.0 0.00 0.00 0.00 93 1015.3
20260505041503 40 0 0.0 0.0 0.00 0.00 0.00 93 1015.1
20260505041003 40 0 0.0 0.0 0.00 0.00 0.00 93 1015.0
20260505040503 40 0 0.0 0.0 0.00 0.00 0.00 93 1015.0
20260505040004 40 0 0.0 0.0 0.00 0.00 0.00 92 1014.8
20260505035503 40 0 0.0 0.0 0.00 0.00 0.00 92 1015.0
20260505035003 40 0 0.0 0.0 0.00 0.00 0.00 92 1015.1
20260505034503 40 0 0.0 0.0 0.00 0.00 0.00 92 1014.9
20260505034003 40 0 0.0 0.0 0.00 0.00 0.00 92 1015.0
20260505033503 40 0 0.0 0.0 0.00 0.00 0.00 92 1015.0
20260505033003 40 0 0.0 0.0 0.00 0.00 0.00 92 1015.1
20260505032525 41 0 0.0 0.0 0.00 0.00 0.00 92 1015.1
20260505032003 40 0 0.0 0.0 0.00 0.00 0.00 92 1014.9
20260505031503 40 0 0.0 0.0 0.00 0.00 0.00 91 1015.1
20260505031003 40 0 0.0 0.0 0.00 0.00 0.00 91 1015.1
20260505030503 40 0 0.0 0.0 0.00 0.00 0.00 91 1015.1
20260505030003 40 0 0.0 0.0 0.00 0.00 0.00 91 1015.2
20260505025524 41 0 0.0 0.0 0.00 0.00 0.00 91 1015.1
20260505025003 41 0 0.0 0.0 0.00 0.00 0.00 91 1015.1
20260505024503 41 0 0.0 0.0 0.00 0.00 0.00 91 1015.0
20260505024003 42 239 0.0 1.0 0.00 0.00 0.00 91 1015.0
20260505023524 42 239 0.0 1.0 0.00 0.00 0.00 91 1015.3
20260505023003 42 239 0.0 1.0 0.00 0.00 0.00 90 1015.3
20260505022524 42 239 0.0 1.0 0.00 0.00 0.00 90 1015.3
20260505022003 41 0 0.0 0.0 0.00 0.00 0.00 90 1015.3